"Pseudo-MPEC" for P10Mgvq

Created 2019 Feb 13 5:18:58 UT using Find_Orb

Click here for an explanation of pseudo-MPECs

 
 Astrometry: 
     P10Mgvq  C2019 02 08u\D(4p=PJ-PD0?Ua%SuH?oFEA^Astrometrys!=Yfl;dNP5lZ9SdF51
     P10Mgvq  C2019 02 08F0?pVdkn8leq322w:f`P%::=WC0\_07pO-nRO,E:W2C/A`P[jUu+F51
     P10Mgvq  C2019 02 08l^vgjtmv?.SQhP:c6DE[Ttf'ncK6/+N+MmuG`K@HXK7/?ydEZ@FDF51
     P10Mgvq  C2019 02 08fZ9MR`g#Z6\+MkJMjhMK,redacted;GK+@l)co:@.ArH.u\D1gKkF51
     P10Mgvq  C2019 02 09.47693 14 04 54.45 +07 57 34.0    ~29C3 21.1 GVNEOCPI52
     P10Mgvq  C2019 02 09.47943 14 04 54.72 +07 57 34.2    ~29C3 20.9 GVNEOCPI52
     P10Mgvq  C2019 02 09.48193 14 04 54.97 +07 57 34.5    ~29C3 21.0 GVNEOCPI52
     P10Mgvq |C2019 02 11MwKOr2R['l!i3Mku#Mt4nEk`x8@Xd`+;f53*Ge?OWurDHdtKkn:`807
     P10Mgvq |C2019 02 11$aZ0Fyj*FUJOgEHeGf_MW-gqUL=!I7%dLi@rB0Wi@'-@L',2Tsu5807
     P10Mgvq  C2019 02 11chpR/Cus9[6aWMBc9w[2Lq;N$DR-uclicks:^pi1p-K+C%FTRhrEV06
     P10Mgvq  C2019 02 11tNKQY!$M9NKD#P)UOUb=M-]s)+F#3L)__v2RJ(#n_SQ_c:KDA2[,V06
     P10Mgvq  C2019 02 11$9==5)p`1s.p'`0jf$;dF'y3=ct^]R=vJZf-Ps$4i+NSuoXjYXq3V06
     P10Mgvq  C2019 02 11ZeR1ifQwqWpuk9ZtmUi%y7p5K/fHh!\.-GwMxtDUjs!*hereSuQ.V06
     P10Mgvq  C2019 02 12rABt0wV*Xo1VjVf4Og]IkZY-?Vx`xrpu)hYa^kq(!7*$5gt^3T@/V06
     P10Mgvq  C2019 02 12Ip9R8smv?XsVu#50k/H$fx'e]lb\01,JEweuo*ThaOkP969anW(lV06
     P10Mgvq  C2019 02 12;@L?8qp$Ge.!SI*yyC59^*JfPcYZnhTforcc]URSYy?BLE^KE'a8V06
     P10Mgvq  C2019 02 12?/MbckKDNZv':O6)M[gxZH9rg^5s4n9Cv!ag_o`5PTdQjm$LZV,\V06
     P10Mgvq pC2019 02 13h6fl7M3qf(W!3fedV2B\Fxi(HHQ#ptEf013!8Fr$)*%ppjZLVV/.L01
     P10Mgvq pC2019 02 13$0YDukWv]XIb;Sg1#2E)h!lk/DOfx1VB4!q%XGbjp$+#FZXadVEUL01
     P10Mgvq pC2019 02 13\[eS:w!VhK[sO'j/9+Mm*m(_BNl(OV?dAr$?M5explanationayJL01

Station data:
(807) Cerro Tololo Observatory, La Serena  (S30.169136 W70.805900)  Chile.
   1.5-m Ritchey-Chrétien.
(F51) Pan-STARRS 1, Haleakala  (N20.707235 W156.255910)  US/Hawaii.
   Observers N. Primak, A. Schultz, S. Watters, J. Thiel, T. Goggia. Measurer
   PS1 Science Consortium. 1.8-m Ritchey-Chrétien + CCD.
(I52) Steward Observatory, Mt. Lemmon Station  (N32.442547 W110.788920)
   US/Arizona.  Observers B. M. Africano, E. J. Christensen, G. A. Farneth,
   D. C. Fuls, A. R. Gibbs, A. D. Grauer, H. Groeller, J. A. Johnson, R. A.
   Kowalski, S. M. Larson, G. J. Leonard, R. L. Seaman, F. C. Shelly. 1.0-m
   reflector + CCD.
(L01) Višnjan Observatory, Tičan  (N45.290900 E13.749300)  Croatia.
   Observers K. Korlević, E. Pettarin. Measurer E. Pettarin. 1.0-m f/2.9
   reflector + CCD.
(V06) Catalina Sky Survey-Kuiper  (N32.416847 W110.732550)  US/Arizona.
   Observers B. M. Africano, E. J. Christensen, G. A. Farneth, D. C. Fuls, A.
   R. Gibbs, A. D. Grauer, H. Groeller, J. A. Johnson, R. A. Kowalski, S. M.
   Larson, G. J. Leonard, R. L. Seaman, F. C. Shelly. 1.55-m reflector + CCD.

Orbital elements:  P10Mgvq
   Perihelion 2019 May 14.712002 +/- 2.62 TT = 17:05:17 (JD 2458618.212002)
Epoch 2019 Feb 13.0 TT = JDT 2458527.5   Earth MOID: 0.5830   Ju: 0.6197
M 344.48805013 +/- 1.7              (J2000 ecliptic)          AutoNEOCP
n   0.17100217 +/- 0.0158           Peri.  131.86277 +/- 2.6
a   3.21465933 +/- 0.198            Node    96.80212 +/- 1.0
e   0.5143888 +/- 0.0238            Incl.   12.74739 +/- 0.11
P   5.76                   H 18.5   G  0.15   U 10.0  
q 1.56107452 +/- 0.0221    Q 4.86824414 +/- 0.419
From 20 observations 2019 Feb. 8-13; mean residual 0".25
Residuals in arcseconds: 
190208 F51  .08-  .06+    190211 807  .34+  .15+    190212 V06  .48-  .10-    
190208 F51  .19-  .02+    190211 807  .13-  .18+    190212 V06  .23-  .04+    
190208 F51  .06-  .00     190211 V06  .12+  .18+    190212 V06  .13-  .08+    
190208 F51  .06+  .03-    190211 V06  .76-  .06+    190213 L01  .10+  .71-    
190209 I52  .03-  .03-    190211 V06  .29+  .04+    190213 L01  .41+  .33+    
190209 I52  .22+  .12-    190211 V06  .16+  .27-    190213 L01  .01+  .25+    
190209 I52  .17+  .10-    190212 V06  .27-  .13-    

Ephemerides (geocentric):
Date (UTC) HH   RA              Dec         delta   r     elong  mag " sig PA
---- -- -- --  -------------   -----------  ------ ------ -----  --- ---- ---
2019 02 13 05  14 11 18.022   +08 05 44.70  1.1361 1.7882 114.6 21.3 .215   1
2019 02 13 06  14 11 22.256   +08 05 50.89  1.1356 1.7880 114.6 21.3 .227   1
2019 02 13 07  14 11 26.488   +08 05 57.10  1.1351 1.7878 114.6 21.3 .240   1
2019 02 13 08  14 11 30.719   +08 06 03.33  1.1347 1.7876 114.6 21.3 .252   1
2019 02 13 09  14 11 34.950   +08 06 09.57  1.1342 1.7874 114.6 21.3 .265   1
2019 02 13 10  14 11 39.179   +08 06 15.83  1.1337 1.7873 114.7 21.3 .278   1
2019 02 13 11  14 11 43.406   +08 06 22.11  1.1332 1.7871 114.7 21.3 .292   1
2019 02 13 12  14 11 47.633   +08 06 28.40  1.1327 1.7869 114.7 21.3 .305   1
2019 02 13 13  14 11 51.859   +08 06 34.71  1.1323 1.7867 114.7 21.3 .319   1
2019 02 13 14  14 11 56.083   +08 06 41.04  1.1318 1.7865 114.8 21.3 .333   1
2019 02 13 15  14 12 00.306   +08 06 47.38  1.1313 1.7863 114.8 21.3 .347   1
2019 02 13 16  14 12 04.528   +08 06 53.74  1.1308 1.7861 114.8 21.3 .361   1
2019 02 13 17  14 12 08.749   +08 07 00.11  1.1304 1.7860 114.8 21.3 .376   1
2019 02 13 18  14 12 12.968   +08 07 06.50  1.1299 1.7858 114.8 21.3 .391   1
2019 02 13 19  14 12 17.187   +08 07 12.91  1.1294 1.7856 114.9 21.3 .406   1
2019 02 13 20  14 12 21.404   +08 07 19.33  1.1289 1.7854 114.9 21.3 .421   1
2019 02 13 21  14 12 25.620   +08 07 25.77  1.1284 1.7852 114.9 21.3 .436   1
2019 02 13 22  14 12 29.835   +08 07 32.23  1.1280 1.7850 114.9 21.3 .452   1
2019 02 13 23  14 12 34.049   +08 07 38.70  1.1275 1.7848 115.0 21.3 .468   1
2019 02 14 00  14 12 38.261   +08 07 45.19  1.1270 1.7846 115.0 21.3 .484   1
2019 02 14 01  14 12 42.473   +08 07 51.69  1.1265 1.7845 115.0 21.3 .501   1
2019 02 14 02  14 12 46.683   +08 07 58.21  1.1261 1.7843 115.0 21.3 .517   1
2019 02 14 03  14 12 50.892   +08 08 04.75  1.1256 1.7841 115.0 21.3 .534   1
2019 02 14 04  14 12 55.099   +08 08 11.31  1.1251 1.7839 115.1 21.3 .551   1
2019 02 14 05  14 12 59.306   +08 08 17.88  1.1246 1.7837 115.1 21.3 .568   1
2019 02 14 06  14 13 03.511   +08 08 24.46  1.1242 1.7835 115.1 21.3 .586   1
2019 02 14 07  14 13 07.715   +08 08 31.07  1.1237 1.7833 115.1 21.3 .603   1
2019 02 14 08  14 13 11.918   +08 08 37.68  1.1232 1.7832 115.2 21.3 .621   1
2019 02 14 09  14 13 16.120   +08 08 44.32  1.1227 1.7830 115.2 21.3 .639   1
2019 02 14 10  14 13 20.321   +08 08 50.97  1.1223 1.7828 115.2 21.3 .658   1
2019 02 14 11  14 13 24.520   +08 08 57.64  1.1218 1.7826 115.2 21.3 .676   1
2019 02 14 12  14 13 28.718   +08 09 04.32  1.1213 1.7824 115.2 21.3 .695   1
2019 02 14 13  14 13 32.915   +08 09 11.02  1.1209 1.7822 115.3 21.3 .714   1
2019 02 14 14  14 13 37.111   +08 09 17.74  1.1204 1.7820 115.3 21.3 .733   1
2019 02 14 15  14 13 41.305   +08 09 24.47  1.1199 1.7819 115.3 21.3 .753   1
2019 02 14 16  14 13 45.499   +08 09 31.22  1.1194 1.7817 115.3 21.3 .772   1
2019 02 14 17  14 13 49.691   +08 09 37.99  1.1190 1.7815 115.4 21.3 .792   1
2019 02 14 18  14 13 53.881   +08 09 44.77  1.1185 1.7813 115.4 21.3 .812   1
2019 02 14 19  14 13 58.071   +08 09 51.56  1.1180 1.7811 115.4 21.3 .833   1
2019 02 14 20  14 14 02.260   +08 09 58.38  1.1175 1.7809 115.4 21.3 .853   1
2019 02 14 21  14 14 06.447   +08 10 05.21  1.1171 1.7808 115.4 21.3 .874   1
2019 02 14 22  14 14 10.633   +08 10 12.05  1.1166 1.7806 115.5 21.3 .895   1
2019 02 14 23  14 14 14.817   +08 10 18.92  1.1161 1.7804 115.5 21.3 .916   1
2019 02 15 00  14 14 19.001   +08 10 25.79  1.1157 1.7802 115.5 21.3 .938   1
2019 02 15 01  14 14 23.183   +08 10 32.69  1.1152 1.7800 115.5 21.3 .959   1
2019 02 15 02  14 14 27.364   +08 10 39.60  1.1147 1.7798 115.6 21.3 .981   1
2019 02 15 03  14 14 31.544   +08 10 46.53  1.1142 1.7796 115.6 21.3 1.00   1
2019 02 15 04  14 14 35.723   +08 10 53.47  1.1138 1.7795 115.6 21.3 1.03   1